| time (UTC) | temp C | wind direction | speed KPH | gust KPH | rain 1hr cm | rain 24hr cm | rain mn cm | humidity % | barometer mb |
| 20260508175623 | 22 | 160 | 0.0 | 1.6 | 0.00 | 0.00 | 0.00 | 41 | 1019.3 |
| 20260508175120 | 21 | 135 | 0.0 | 1.6 | 0.00 | 0.00 | 0.00 | 42 | 1019.4 |
| 20260508174618 | 21 | 138 | 0.0 | 3.2 | 0.00 | 0.00 | 0.00 | 41 | 1019.5 |
| 20260508174115 | 22 | 178 | 3.2 | 3.2 | 0.00 | 0.00 | 0.00 | 39 | 1019.7 |
| 20260508173612 | 22 | 172 | 1.6 | 1.6 | 0.00 | 0.00 | 0.00 | 42 | 1019.8 |
| 20260508173108 | 21 | 166 | 0.0 | 3.2 | 0.00 | 0.00 | 0.00 | 41 | 1019.6 |
| 20260508172605 | 21 | 166 | 0.0 | 3.2 | 0.00 | 0.00 | 0.00 | 42 | 1019.8 |
| 20260508172101 | 21 | 170 | 1.6 | 3.2 | 0.00 | 0.00 | 0.00 | 46 | 1019.9 |
| 20260508171558 | 20 | 144 | 0.0 | 0.0 | 0.00 | 0.00 | 0.00 | 49 | 1020.0 |
| 20260508171054 | 20 | 127 | 0.0 | 0.0 | 0.00 | 0.00 | 0.00 | 46 | 1020.0 |
| 20260508170552 | 20 | 220 | 0.0 | 1.6 | 0.00 | 0.00 | 0.00 | 46 | 1020.3 |
| 20260508170049 | 18 | 108 | 1.6 | 4.8 | 0.00 | 0.00 | 0.00 | 47 | 1020.0 |
| 20260508165546 | 19 | 106 | 1.6 | 1.6 | 0.00 | 0.00 | 0.00 | 46 | 1019.9 |
| 20260508165043 | 21 | 184 | 0.0 | 1.6 | 0.00 | 0.00 | 0.00 | 47 | 1020.4 |
| 20260508164539 | 19 | 130 | 0.0 | 1.6 | 0.00 | 0.00 | 0.00 | 47 | 1020.3 |
| 20260508164036 | 18 | 61 | 1.6 | 3.2 | 0.00 | 0.00 | 0.00 | 46 | 1020.9 |
| 20260508163534 | 19 | 131 | 0.0 | 0.0 | 0.00 | 0.00 | 0.00 | 50 | 1020.7 |
| 20260508163030 | 19 | 135 | 0.0 | 3.2 | 0.00 | 0.00 | 0.00 | 49 | 1020.8 |
| 20260508162527 | 20 | 87 | 0.0 | 1.6 | 0.00 | 0.00 | 0.00 | 45 | 1021.0 |
| 20260508162025 | 21 | 196 | 1.6 | 1.6 | 0.00 | 0.00 | 0.00 | 43 | 1020.8 |
| 20260508161521 | 21 | 144 | 0.0 | 0.0 | 0.00 | 0.00 | 0.00 | 48 | 1021.1 |
| 20260508161018 | 20 | 157 | 0.0 | 0.0 | 0.00 | 0.00 | 0.00 | 49 | 1020.8 |
| 20260508160517 | 20 | 177 | 1.6 | 4.8 | 0.00 | 0.00 | 0.00 | 49 | 1021.3 |
| 20260508160014 | 20 | 160 | 1.6 | 3.2 | 0.00 | 0.00 | 0.00 | 50 | 1021.5 |
| 20260508155510 | 19 | 146 | 1.6 | 1.6 | 0.00 | 0.00 | 0.00 | 51 | 1021.3 |
| 20260508155008 | 18 | 146 | 0.0 | 3.2 | 0.00 | 0.00 | 0.00 | 52 | 1021.4 |
| 20260508154505 | 17 | 69 | 3.2 | 3.2 | 0.00 | 0.00 | 0.00 | 54 | 1021.3 |
| 20260508154001 | 18 | 61 | 3.2 | 3.2 | 0.00 | 0.00 | 0.00 | 52 | 1021.3 |
| 20260508153458 | 18 | 130 | 1.6 | 1.6 | 0.00 | 0.00 | 0.00 | 52 | 1021.3 |
| 20260508152954 | 18 | 94 | 1.6 | 3.2 | 0.00 | 0.00 | 0.00 | 52 | 1021.5 |
| 20260508152451 | 19 | 139 | 0.0 | 1.6 | 0.00 | 0.00 | 0.00 | 53 | 1021.5 |
| 20260508151947 | 18 | 62 | 1.6 | 3.2 | 0.00 | 0.00 | 0.00 | 54 | 1021.6 |
| 20260508151444 | 20 | 158 | 0.0 | 0.0 | 0.00 | 0.00 | 0.00 | 56 | 1021.8 |
| 20260508150941 | 19 | 131 | 0.0 | 1.6 | 0.00 | 0.00 | 0.00 | 56 | 1021.7 |
| 20260508150437 | 17 | 107 | 0.0 | 1.6 | 0.00 | 0.00 | 0.00 | 59 | 1021.6 |
| 20260508145933 | 17 | 78 | 0.0 | 1.6 | 0.00 | 0.00 | 0.00 | 61 | 1021.5 |
| 20260508145430 | 17 | 51 | 1.6 | 1.6 | 0.00 | 0.00 | 0.00 | 62 | 1021.7 |
| 20260508144927 | 16 | 107 | 1.6 | 3.2 | 0.00 | 0.00 | 0.00 | 65 | 1021.7 |
| 20260508144425 | 16 | 63 | 3.2 | 3.2 | 0.00 | 0.00 | 0.00 | 65 | 1021.9 |
| 20260508143922 | 16 | 102 | 1.6 | 3.2 | 0.00 | 0.00 | 0.00 | 64 | 1021.9 |
| 20260508143419 | 15 | 81 | 3.2 | 4.8 | 0.00 | 0.00 | 0.00 | 65 | 1021.8 |
| 20260508142915 | 16 | 68 | 3.2 | 4.8 | 0.00 | 0.00 | 0.00 | 65 | 1021.8 |
| 20260508142413 | 16 | 147 | 1.6 | 3.2 | 0.00 | 0.00 | 0.00 | 62 | 1021.7 |
| 20260508141909 | 16 | 113 | 0.0 | 3.2 | 0.00 | 0.00 | 0.00 | 63 | 1022.0 |
| 20260508141406 | 16 | 62 | 1.6 | 3.2 | 0.00 | 0.00 | 0.00 | 61 | 1022.0 |
| 20260508140904 | 15 | 109 | 3.2 | 3.2 | 0.00 | 0.00 | 0.00 | 63 | 1022.1 |
| 20260508140400 | 15 | 91 | 3.2 | 4.8 | 0.00 | 0.00 | 0.00 | 64 | 1022.0 |
| 20260508135856 | 15 | 106 | 1.6 | 3.2 | 0.00 | 0.00 | 0.00 | 63 | 1022.0 |
| 20260508135352 | 15 | 64 | 3.2 | 6.4 | 0.00 | 0.00 | 0.00 | 63 | 1021.6 |
| 20260508134849 | 15 | 76 | 3.2 | 9.7 | 0.00 | 0.00 | 0.00 | 65 | 1021.9 |
| 20260508134345 | 15 | 37 | 3.2 | 6.4 | 0.00 | 0.00 | 0.00 | 63 | 1021.7 |
| 20260508133842 | 15 | 89 | 1.6 | 6.4 | 0.00 | 0.00 | 0.00 | 63 | 1021.7 |
| 20260508133340 | 15 | 120 | 0.0 | 4.8 | 0.00 | 0.00 | 0.00 | 62 | 1021.8 |
| 20260508132837 | 15 | 358 | 3.2 | 6.4 | 0.00 | 0.00 | 0.00 | 65 | 1021.7 |
| 20260508132335 | 15 | 88 | 3.2 | 4.8 | 0.00 | 0.00 | 0.00 | 65 | 1021.9 |
| 20260508131831 | 15 | 67 | 3.2 | 4.8 | 0.00 | 0.00 | 0.00 | 65 | 1021.9 |
| 20260508131327 | 15 | 85 | 1.6 | 3.2 | 0.00 | 0.00 | 0.00 | 64 | 1021.7 |
| 20260508130824 | 15 | 99 | 1.6 | 3.2 | 0.00 | 0.00 | 0.00 | 64 | 1021.8 |
| 20260508130321 | 15 | 119 | 0.0 | 1.6 | 0.00 | 0.00 | 0.00 | 63 | 1021.8 |
| 20260508125817 | 15 | 81 | 3.2 | 4.8 | 0.00 | 0.00 | 0.00 | 66 | 1021.8 |
| 20260508125313 | 16 | 135 | 0.0 | 0.0 | 0.00 | 0.00 | 0.00 | 66 | 1021.9 |
| 20260508124811 | 15 | 98 | 0.0 | 1.6 | 0.00 | 0.00 | 0.00 | 66 | 1021.9 |
| 20260508124308 | 16 | 117 | 0.0 | 1.6 | 0.00 | 0.00 | 0.00 | 66 | 1021.8 |
| 20260508123806 | 15 | 103 | 0.0 | 0.0 | 0.00 | 0.00 | 0.00 | 75 | 1022.2 |
| 20260508123304 | 13 | 4 | 0.0 | 0.0 | 0.00 | 0.00 | 0.00 | 77 | 1022.1 |
| 20260508122800 | 12 | 297 | 0.0 | 3.2 | 0.00 | 0.00 | 0.00 | 79 | 1021.9 |
| 20260508122257 | 12 | 326 | 1.6 | 1.6 | 0.00 | 0.00 | 0.00 | 80 | 1021.7 |
| 20260508121754 | 11 | 300 | 1.6 | 4.8 | 0.00 | 0.00 | 0.00 | 83 | 1021.5 |
| 20260508121253 | 11 | 270 | 1.6 | 4.8 | 0.00 | 0.00 | 0.00 | 86 | 1021.7 |
| 20260508120749 | 11 | 293 | 1.6 | 3.2 | 0.00 | 0.00 | 0.00 | 89 | 1021.7 |
| 20260508120248 | 10 | 289 | 3.2 | 3.2 | 0.00 | 0.00 | 0.00 | 90 | 1021.7 |
| 20260508115745 | 10 | 290 | 3.2 | 3.2 | 0.00 | 0.00 | 0.00 | 90 | 1021.6 |
| 20260508115242 | 9 | 282 | 3.2 | 4.8 | 0.00 | 0.00 | 0.00 | 90 | 1021.4 |
| 20260508114733 | 9 | 296 | 3.2 | 3.2 | 0.00 | 0.00 | 0.00 | 91 | 1021.4 |
| 20260508114230 | 8 | 293 | 3.2 | 4.8 | 0.00 | 0.00 | 0.00 | 91 | 1021.1 |
| 20260508113726 | 8 | 290 | 3.2 | 6.4 | 0.00 | 0.00 | 0.00 | 91 | 1020.9 |
| 20260508113225 | 8 | 299 | 3.2 | 4.8 | 0.00 | 0.00 | 0.00 | 91 | 1020.9 |
| 20260508112721 | 8 | 304 | 3.2 | 4.8 | 0.00 | 0.00 | 0.00 | 91 | 1020.9 |
| 20260508112218 | 8 | 297 | 4.8 | 4.8 | 0.00 | 0.00 | 0.00 | 92 | 1020.8 |
| 20260508111715 | 7 | 294 | 3.2 | 4.8 | 0.00 | 0.00 | 0.00 | 92 | 1020.9 |
| 20260508111213 | 7 | 296 | 4.8 | 4.8 | 0.00 | 0.00 | 0.00 | 93 | 1020.6 |
| 20260508110710 | 7 | 295 | 3.2 | 4.8 | 0.00 | 0.00 | 0.00 | 93 | 1020.5 |
| 20260508110207 | 7 | 293 | 3.2 | 4.8 | 0.00 | 0.00 | 0.00 | 93 | 1020.4 |
| 20260508105706 | 7 | 298 | 4.8 | 4.8 | 0.00 | 0.00 | 0.00 | 93 | 1020.3 |
| 20260508105204 | 7 | 305 | 4.8 | 4.8 | 0.00 | 0.00 | 0.00 | 92 | 1020.2 |
| 20260508104701 | 7 | 302 | 4.8 | 6.4 | 0.00 | 0.00 | 0.00 | 92 | 1020.2 |
| 20260508104158 | 7 | 314 | 3.2 | 4.8 | 0.00 | 0.00 | 0.00 | 92 | 1020.1 |
| 20260508103655 | 7 | 299 | 4.8 | 4.8 | 0.00 | 0.00 | 0.00 | 91 | 1020.1 |
| 20260508103152 | 7 | 297 | 4.8 | 4.8 | 0.00 | 0.00 | 0.00 | 91 | 1019.9 |
| 20260508102649 | 7 | 293 | 4.8 | 4.8 | 0.00 | 0.00 | 0.00 | 92 | 1020.0 |
| 20260508102147 | 7 | 302 | 3.2 | 4.8 | 0.00 | 0.00 | 0.00 | 92 | 1019.8 |
| 20260508101644 | 8 | 298 | 3.2 | 4.8 | 0.00 | 0.00 | 0.00 | 91 | 1019.8 |
| 20260508101141 | 8 | 296 | 3.2 | 4.8 | 0.00 | 0.00 | 0.00 | 91 | 1019.7 |
| 20260508100638 | 8 | 303 | 3.2 | 3.2 | 0.00 | 0.00 | 0.00 | 91 | 1019.6 |
| 20260508100136 | 8 | 300 | 4.8 | 4.8 | 0.00 | 0.00 | 0.00 | 90 | 1019.7 |
| 20260508095633 | 8 | 302 | 4.8 | 4.8 | 0.00 | 0.00 | 0.00 | 90 | 1019.8 |
| 20260508095130 | 8 | 299 | 4.8 | 6.4 | 0.00 | 0.00 | 0.00 | 89 | 1019.8 |
| 20260508094627 | 8 | 289 | 4.8 | 4.8 | 0.00 | 0.00 | 0.00 | 90 | 1019.6 |
| 20260508094124 | 8 | 295 | 4.8 | 4.8 | 0.00 | 0.00 | 0.00 | 90 | 1019.7 |
| 20260508093621 | 8 | 285 | 3.2 | 4.8 | 0.00 | 0.00 | 0.00 | 89 | 1019.7 |
| 20260508093119 | 8 | 295 | 3.2 | 4.8 | 0.00 | 0.00 | 0.00 | 88 | 1019.6 |
| 20260508092616 | 9 | 287 | 3.2 | 4.8 | 0.00 | 0.00 | 0.00 | 89 | 1019.6 |
| 20260508092114 | 9 | 291 | 3.2 | 3.2 | 0.00 | 0.00 | 0.00 | 88 | 1019.6 |
| 20260508091611 | 9 | 281 | 1.6 | 3.2 | 0.00 | 0.00 | 0.00 | 88 | 1019.5 |
| 20260508091108 | 9 | 296 | 1.6 | 3.2 | 0.00 | 0.00 | 0.00 | 89 | 1019.6 |
| 20260508090606 | 9 | 288 | 3.2 | 3.2 | 0.00 | 0.00 | 0.00 | 88 | 1019.6 |
| 20260508090103 | 9 | 293 | 3.2 | 3.2 | 0.00 | 0.00 | 0.00 | 88 | 1019.4 |
| 20260508085559 | 9 | 298 | 3.2 | 3.2 | 0.00 | 0.00 | 0.00 | 88 | 1019.5 |
| 20260508085056 | 9 | 286 | 3.2 | 3.2 | 0.00 | 0.00 | 0.00 | 88 | 1019.4 |
| 20260508084552 | 10 | 298 | 3.2 | 3.2 | 0.00 | 0.00 | 0.00 | 88 | 1019.4 |
| 20260508084049 | 10 | 302 | 3.2 | 3.2 | 0.00 | 0.00 | 0.00 | 88 | 1019.4 |
| 20260508083547 | 10 | 287 | 3.2 | 3.2 | 0.00 | 0.00 | 0.00 | 88 | 1019.4 |
| 20260508083043 | 10 | 282 | 3.2 | 3.2 | 0.00 | 0.00 | 0.00 | 88 | 1019.4 |
| 20260508082539 | 10 | 302 | 1.6 | 3.2 | 0.00 | 0.00 | 0.00 | 88 | 1019.3 |
| 20260508082037 | 10 | 282 | 3.2 | 3.2 | 0.00 | 0.00 | 0.00 | 87 | 1019.2 |
| 20260508081534 | 10 | 286 | 3.2 | 3.2 | 0.00 | 0.00 | 0.00 | 86 | 1019.4 |
| 20260508081030 | 10 | 283 | 1.6 | 4.8 | 0.00 | 0.00 | 0.00 | 87 | 1019.5 |
| 20260508080529 | 10 | 284 | 3.2 | 3.2 | 0.00 | 0.00 | 0.00 | 87 | 1019.5 |
| 20260508080025 | 11 | 295 | 1.6 | 1.6 | 0.00 | 0.00 | 0.00 | 86 | 1019.5 |
| 20260508075522 | 11 | 286 | 1.6 | 1.6 | 0.00 | 0.00 | 0.00 | 86 | 1019.2 |
| 20260508075019 | 10 | 339 | 1.6 | 1.6 | 0.00 | 0.00 | 0.00 | 86 | 1019.5 |
| 20260508074517 | 10 | 300 | 1.6 | 1.6 | 0.00 | 0.00 | 0.00 | 88 | 1019.3 |
| 20260508074014 | 10 | 289 | 1.6 | 3.2 | 0.00 | 0.00 | 0.00 | 88 | 1019.5 |
| 20260508073511 | 11 | 304 | 1.6 | 3.2 | 0.00 | 0.00 | 0.00 | 88 | 1019.5 |
| 20260508073009 | 11 | 333 | 0.0 | 3.2 | 0.00 | 0.00 | 0.00 | 88 | 1019.4 |
| 20260508072504 | 10 | 316 | 3.2 | 3.2 | 0.00 | 0.00 | 0.00 | 89 | 1019.5 |
| 20260508072002 | 11 | 298 | 1.6 | 3.2 | 0.00 | 0.00 | 0.00 | 89 | 1019.5 |
| 20260508071459 | 10 | 281 | 3.2 | 3.2 | 0.00 | 0.00 | 0.00 | 89 | 1019.5 |
| 20260508070957 | 10 | 311 | 1.6 | 3.2 | 0.00 | 0.00 | 0.00 | 89 | 1019.6 |
| 20260508070454 | 10 | 290 | 3.2 | 3.2 | 0.00 | 0.00 | 0.00 | 88 | 1019.9 |
| 20260508065952 | 10 | 279 | 1.6 | 3.2 | 0.00 | 0.00 | 0.00 | 88 | 1019.7 |
| 20260508065450 | 10 | 280 | 3.2 | 3.2 | 0.00 | 0.00 | 0.00 | 89 | 1019.8 |
| 20260508064948 | 10 | 297 | 1.6 | 1.6 | 0.00 | 0.00 | 0.00 | 89 | 1019.7 |
| 20260508064445 | 10 | 299 | 3.2 | 3.2 | 0.00 | 0.00 | 0.00 | 89 | 1019.8 |
| 20260508063943 | 11 | 312 | 1.6 | 4.8 | 0.00 | 0.00 | 0.00 | 88 | 1019.8 |
| 20260508063440 | 10 | 298 | 3.2 | 4.8 | 0.00 | 0.00 | 0.00 | 87 | 1019.8 |
| 20260508062938 | 10 | 297 | 3.2 | 4.8 | 0.00 | 0.00 | 0.00 | 85 | 1019.8 |
| 20260508062436 | 11 | 295 | 3.2 | 3.2 | 0.00 | 0.00 | 0.00 | 85 | 1019.9 |
| 20260508061932 | 11 | 308 | 1.6 | 3.2 | 0.00 | 0.00 | 0.00 | 85 | 1020.0 |
| 20260508061430 | 11 | 291 | 1.6 | 3.2 | 0.00 | 0.00 | 0.00 | 86 | 1019.8 |
| 20260508060926 | 11 | 304 | 3.2 | 3.2 | 0.00 | 0.00 | 0.00 | 86 | 1019.9 |
| 20260508060424 | 11 | 310 | 3.2 | 3.2 | 0.00 | 0.00 | 0.00 | 84 | 1019.9 |
| 20260508055919 | 11 | 308 | 1.6 | 3.2 | 0.00 | 0.00 | 0.00 | 85 | 1020.0 |
| 20260508055416 | 11 | 278 | 1.6 | 3.2 | 0.00 | 0.00 | 0.00 | 85 | 1020.0 |
| 20260508054913 | 11 | 54 | 0.0 | 1.6 | 0.00 | 0.00 | 0.00 | 85 | 1019.8 |
| 20260508054410 | 11 | 23 | 0.0 | 1.6 | 0.00 | 0.00 | 0.00 | 85 | 1019.7 |
| 20260508053907 | 11 | 276 | 3.2 | 3.2 | 0.00 | 0.00 | 0.00 | 84 | 1019.7 |
| 20260508053404 | 12 | 284 | 1.6 | 3.2 | 0.00 | 0.00 | 0.00 | 83 | 1019.6 |
| 20260508052901 | 12 | 61 | 1.6 | 1.6 | 0.00 | 0.00 | 0.00 | 81 | 1019.8 |
| 20260508052359 | 12 | 325 | 1.6 | 3.2 | 0.00 | 0.00 | 0.00 | 84 | 1019.7 |
| 20260508051855 | 12 | 316 | 1.6 | 3.2 | 0.00 | 0.00 | 0.00 | 83 | 1019.5 |
| 20260508051350 | 12 | 65 | 0.0 | 1.6 | 0.00 | 0.00 | 0.00 | 79 | 1019.7 |
| 20260508050847 | 12 | 8 | 1.6 | 3.2 | 0.00 | 0.00 | 0.00 | 83 | 1019.6 |
| 20260508050344 | 12 | 296 | 4.8 | 4.8 | 0.00 | 0.00 | 0.00 | 85 | 1019.6 |
| 20260508045840 | 12 | 301 | 4.8 | 4.8 | 0.00 | 0.00 | 0.00 | 85 | 1019.7 |
| 20260508045337 | 12 | 303 | 3.2 | 4.8 | 0.00 | 0.00 | 0.00 | 85 | 1019.5 |
| 20260508044835 | 12 | 302 | 3.2 | 4.8 | 0.00 | 0.00 | 0.00 | 86 | 1019.7 |
| 20260508044331 | 12 | 297 | 3.2 | 4.8 | 0.00 | 0.00 | 0.00 | 86 | 1019.7 |
| 20260508043827 | 12 | 301 | 4.8 | 4.8 | 0.00 | 0.00 | 0.00 | 87 | 1019.7 |
| 20260508043324 | 12 | 279 | 3.2 | 4.8 | 0.00 | 0.00 | 0.00 | 87 | 1019.3 |
| 20260508042821 | 12 | 284 | 3.2 | 4.8 | 0.00 | 0.00 | 0.00 | 86 | 1019.2 |
| 20260508042319 | 12 | 293 | 3.2 | 4.8 | 0.00 | 0.00 | 0.00 | 86 | 1019.4 |
| 20260508041815 | 12 | 289 | 3.2 | 4.8 | 0.00 | 0.00 | 0.00 | 86 | 1019.4 |
| 20260508041312 | 12 | 309 | 3.2 | 3.2 | 0.00 | 0.00 | 0.00 | 85 | 1019.5 |
| 20260508040808 | 12 | 308 | 3.2 | 4.8 | 0.00 | 0.00 | 0.00 | 85 | 1019.4 |
| 20260508040306 | 12 | 297 | 3.2 | 4.8 | 0.00 | 0.00 | 0.00 | 86 | 1019.7 |
| 20260508035803 | 12 | 289 | 3.2 | 4.8 | 0.00 | 0.56 | 0.56 | 85 | 1019.4 |
| 20260508035300 | 12 | 299 | 3.2 | 4.8 | 0.00 | 0.56 | 0.56 | 86 | 1019.4 |
| 20260508034756 | 12 | 297 | 3.2 | 4.8 | 0.00 | 0.56 | 0.56 | 86 | 1019.4 |
| 20260508034254 | 12 | 294 | 3.2 | 4.8 | 0.00 | 0.56 | 0.56 | 87 | 1019.5 |
| 20260508033751 | 12 | 302 | 3.2 | 4.8 | 0.00 | 0.56 | 0.56 | 86 | 1019.4 |
| 20260508033249 | 12 | 300 | 3.2 | 4.8 | 0.00 | 0.56 | 0.56 | 85 | 1019.4 |
| 20260508032746 | 12 | 289 | 3.2 | 4.8 | 0.00 | 0.56 | 0.56 | 86 | 1019.4 |
| 20260508032243 | 12 | 285 | 3.2 | 4.8 | 0.00 | 0.56 | 0.56 | 88 | 1019.3 |
| 20260508031740 | 12 | 295 | 3.2 | 4.8 | 0.00 | 0.56 | 0.56 | 88 | 1019.4 |
| 20260508031236 | 12 | 291 | 3.2 | 3.2 | 0.00 | 0.56 | 0.56 | 89 | 1019.2 |
| 20260508030733 | 13 | 300 | 3.2 | 4.8 | 0.00 | 0.56 | 0.56 | 90 | 1019.1 |
| 20260508030230 | 12 | 306 | 3.2 | 4.8 | 0.00 | 0.56 | 0.56 | 90 | 1019.0 |
| 20260508025727 | 12 | 302 | 3.2 | 4.8 | 0.00 | 0.56 | 0.56 | 90 | 1019.0 |
| 20260508025224 | 12 | 297 | 3.2 | 4.8 | 0.00 | 0.56 | 0.56 | 90 | 1019.1 |
| 20260508024720 | 12 | 308 | 3.2 | 4.8 | 0.00 | 0.56 | 0.56 | 90 | 1019.0 |
| 20260508024217 | 12 | 288 | 3.2 | 4.8 | 0.00 | 0.56 | 0.56 | 90 | 1018.9 |
| 20260508023713 | 12 | 302 | 4.8 | 4.8 | 0.00 | 0.56 | 0.56 | 90 | 1019.0 |
| 20260508023211 | 12 | 279 | 3.2 | 4.8 | 0.00 | 0.56 | 0.56 | 91 | 1018.7 |
| 20260508022706 | 12 | 287 | 4.8 | 4.8 | 0.00 | 0.56 | 0.56 | 91 | 1018.9 |
| 20260508022204 | 12 | 287 | 3.2 | 4.8 | 0.00 | 0.56 | 0.56 | 91 | 1019.2 |
| 20260508021700 | 12 | 287 | 4.8 | 4.8 | 0.00 | 0.56 | 0.56 | 91 | 1019.0 |
| 20260508021155 | 12 | 300 | 4.8 | 6.4 | 0.00 | 0.56 | 0.56 | 91 | 1018.9 |
| 20260508020654 | 12 | 297 | 3.2 | 4.8 | 0.00 | 0.56 | 0.56 | 91 | 1019.1 |
| 20260508020151 | 12 | 293 | 4.8 | 4.8 | 0.00 | 0.56 | 0.56 | 91 | 1018.9 |
| 20260508015648 | 12 | 285 | 4.8 | 4.8 | 0.00 | 0.56 | 0.56 | 91 | 1018.9 |
| 20260508015145 | 12 | 295 | 3.2 | 4.8 | 0.00 | 0.56 | 0.56 | 91 | 1018.7 |
| 20260508014641 | 13 | 286 | 4.8 | 4.8 | 0.00 | 0.56 | 0.56 | 91 | 1018.8 |
| 20260508014137 | 12 | 283 | 3.2 | 4.8 | 0.00 | 0.56 | 0.56 | 91 | 1018.8 |
| 20260508013634 | 13 | 287 | 3.2 | 3.2 | 0.00 | 0.56 | 0.56 | 90 | 1018.5 |
| 20260508013131 | 13 | 296 | 3.2 | 4.8 | 0.00 | 0.56 | 0.56 | 90 | 1018.7 |
| 20260508012628 | 13 | 289 | 3.2 | 3.2 | 0.00 | 0.56 | 0.56 | 89 | 1018.5 |
| 20260508012125 | 13 | 302 | 3.2 | 3.2 | 0.00 | 0.56 | 0.56 | 89 | 1018.4 |
| 20260508011624 | 13 | 297 | 3.2 | 3.2 | 0.00 | 0.56 | 0.56 | 88 | 1018.3 |
| 20260508011120 | 13 | 302 | 3.2 | 3.2 | 0.00 | 0.56 | 0.56 | 88 | 1018.2 |
| 20260508010617 | 13 | 294 | 3.2 | 3.2 | 0.00 | 0.56 | 0.56 | 87 | 1017.9 |
| 20260508010115 | 13 | 282 | 3.2 | 3.2 | 0.00 | 0.56 | 0.56 | 86 | 1018.0 |
| 20260508005611 | 13 | 296 | 3.2 | 4.8 | 0.00 | 0.56 | 0.56 | 85 | 1018.1 |
| 20260508005108 | 14 | 297 | 3.2 | 3.2 | 0.00 | 0.56 | 0.56 | 85 | 1017.9 |
| 20260508004604 | 14 | 306 | 3.2 | 4.8 | 0.00 | 0.56 | 0.56 | 85 | 1017.8 |
| 20260508004101 | 14 | 295 | 3.2 | 3.2 | 0.00 | 0.56 | 0.56 | 85 | 1017.7 |
| 20260508003557 | 14 | 298 | 1.6 | 3.2 | 0.00 | 0.56 | 0.56 | 85 | 1017.6 |
| 20260508003055 | 15 | 292 | 1.6 | 3.2 | 0.00 | 0.56 | 0.56 | 85 | 1017.7 |
| 20260508002551 | 15 | 287 | 1.6 | 3.2 | 0.00 | 0.56 | 0.56 | 84 | 1017.5 |
| 20260508002049 | 15 | 286 | 1.6 | 3.2 | 0.00 | 0.56 | 0.56 | 83 | 1017.6 |
| 20260508001544 | 15 | 285 | 1.6 | 3.2 | 0.00 | 0.56 | 0.56 | 83 | 1017.5 |
| 20260508001041 | 16 | 264 | 1.6 | 3.2 | 0.00 | 0.56 | 0.56 | 81 | 1017.5 |
| 20260508000537 | 16 | 253 | 1.6 | 3.2 | 0.00 | 0.56 | 0.56 | 82 | 1017.3 |
| 20260508000034 | 16 | 280 | 1.6 | 4.8 | 0.00 | 0.56 | 0.56 | 78 | 1017.4 |
| 20260507235531 | 16 | 285 | 1.6 | 1.6 | 0.00 | 0.56 | 0.56 | 76 | 1017.4 |
| 20260507235028 | 17 | 283 | 1.6 | 1.6 | 0.00 | 0.56 | 0.56 | 74 | 1017.3 |
| 20260507234524 | 17 | 240 | 0.0 | 1.6 | 0.00 | 0.56 | 0.56 | 73 | 1017.2 |
| 20260507234021 | 17 | 278 | 1.6 | 3.2 | 0.00 | 0.56 | 0.56 | 73 | 1017.2 |
| 20260507233518 | 18 | 276 | 1.6 | 3.2 | 0.00 | 0.56 | 0.56 | 72 | 1017.0 |
| 20260507233017 | 18 | 300 | 4.8 | 4.8 | 0.00 | 0.56 | 0.56 | 63 | 1017.0 |
| 20260507232512 | 18 | 329 | 3.2 | 4.8 | 0.00 | 0.56 | 0.56 | 64 | 1017.3 |
| 20260507232010 | 19 | 281 | 3.2 | 4.8 | 0.00 | 0.56 | 0.56 | 64 | 1017.0 |
| 20260507231506 | 20 | 195 | 0.0 | 1.6 | 0.00 | 0.56 | 0.56 | 63 | 1017.5 |
| 20260507231003 | 20 | 185 | 0.0 | 1.6 | 0.00 | 0.56 | 0.56 | 62 | 1017.2 |
| 20260507230500 | 20 | 299 | 3.2 | 4.8 | 0.00 | 0.56 | 0.56 | 60 | 1017.0 |
| 20260507225955 | 20 | 114 | 1.6 | 3.2 | 0.00 | 0.56 | 0.56 | 60 | 1016.9 |
| 20260507225452 | 20 | 334 | 3.2 | 3.2 | 0.00 | 0.56 | 0.56 | 59 | 1017.1 |
| 20260507224948 | 20 | 307 | 1.6 | 6.4 | 0.00 | 0.56 | 0.56 | 60 | 1016.9 |
| 20260507224444 | 20 | 325 | 3.2 | 9.7 | 0.00 | 0.56 | 0.56 | 59 | 1017.2 |
| 20260507223941 | 20 | 72 | 1.6 | 6.4 | 0.00 | 0.56 | 0.56 | 58 | 1017.1 |
| 20260507223437 | 21 | 342 | 1.6 | 4.8 | 0.00 | 0.56 | 0.56 | 57 | 1017.2 |
| 20260507222935 | 20 | 357 | 1.6 | 3.2 | 0.00 | 0.56 | 0.56 | 57 | 1017.1 |
| 20260507222431 | 20 | 329 | 3.2 | 9.7 | 0.00 | 0.56 | 0.56 | 57 | 1017.1 |
| 20260507221927 | 21 | 309 | 3.2 | 4.8 | 0.00 | 0.56 | 0.56 | 58 | 1016.8 |
| 20260507221424 | 21 | 283 | 4.8 | 6.4 | 0.00 | 0.56 | 0.56 | 57 | 1016.9 |
| 20260507220920 | 21 | 260 | 1.6 | 3.2 | 0.00 | 0.56 | 0.56 | 57 | 1016.9 |
| 20260507220418 | 21 | 185 | 0.0 | 3.2 | 0.00 | 0.56 | 0.56 | 57 | 1016.9 |
| 20260507215914 | 20 | 97 | 3.2 | 4.8 | 0.00 | 0.56 | 0.56 | 62 | 1016.9 |
| 20260507215411 | 20 | 233 | 0.0 | 1.6 | 0.00 | 0.56 | 0.56 | 63 | 1017.0 |
| 20260507214908 | 20 | 329 | 3.2 | 4.8 | 0.00 | 0.56 | 0.56 | 59 | 1016.9 |
| 20260507214406 | 20 | 20 | 3.2 | 4.8 | 0.00 | 0.56 | 0.56 | 59 | 1016.9 |
| 20260507213901 | 20 | 158 | 0.0 | 4.8 | 0.00 | 0.56 | 0.56 | 60 | 1016.9 |
| 20260507213358 | 20 | 247 | 4.8 | 6.4 | 0.00 | 0.56 | 0.56 | 59 | 1016.9 |
| 20260507212855 | 20 | 299 | 4.8 | 4.8 | 0.00 | 0.56 | 0.56 | 60 | 1016.7 |
| 20260507212351 | 20 | 268 | 6.4 | 9.7 | 0.00 | 0.56 | 0.56 | 58 | 1016.7 |
| 20260507211848 | 20 | 239 | 3.2 | 6.4 | 0.00 | 0.56 | 0.56 | 59 | 1016.8 |
| 20260507211344 | 20 | 303 | 0.0 | 6.4 | 0.00 | 0.56 | 0.56 | 59 | 1016.6 |
| 20260507210842 | 20 | 37 | 4.8 | 6.4 | 0.00 | 0.56 | 0.56 | 60 | 1016.6 |
| 20260507210338 | 20 | 279 | 4.8 | 11.3 | 0.00 | 0.56 | 0.56 | 59 | 1016.7 |
| 20260507205835 | 20 | 272 | 3.2 | 6.4 | 0.00 | 0.56 | 0.56 | 61 | 1016.5 |
| 20260507205332 | 20 | 46 | 1.6 | 4.8 | 0.00 | 0.56 | 0.56 | 62 | 1016.6 |
| 20260507204827 | 20 | 262 | 4.8 | 11.3 | 0.00 | 0.56 | 0.56 | 61 | 1016.6 |
| 20260507204325 | 20 | 260 | 4.8 | 9.7 | 0.00 | 0.56 | 0.56 | 64 | 1016.4 |
| 20260507203823 | 19 | 49 | 3.2 | 3.2 | 0.00 | 0.56 | 0.56 | 64 | 1016.4 |
| 20260507203321 | 19 | 288 | 1.6 | 3.2 | 0.00 | 0.56 | 0.56 | 66 | 1016.4 |
| 20260507202816 | 20 | 271 | 1.6 | 3.2 | 0.00 | 0.56 | 0.56 | 68 | 1016.6 |
| 20260507202313 | 19 | 272 | 1.6 | 4.8 | 0.00 | 0.56 | 0.56 | 69 | 1016.4 |
| 20260507201808 | 19 | 177 | 3.2 | 4.8 | 0.00 | 0.56 | 0.56 | 71 | 1016.4 |
| 20260507201304 | 19 | 173 | 0.0 | 0.0 | 0.00 | 0.56 | 0.56 | 72 | 1016.7 |
| 20260507200801 | 18 | 83 | 3.2 | 4.8 | 0.00 | 0.56 | 0.56 | 74 | 1016.6 |
| 20260507200257 | 18 | 83 | 1.6 | 3.2 | 0.00 | 0.56 | 0.56 | 73 | 1016.4 |
| 20260507195753 | 18 | 96 | 3.2 | 3.2 | 0.00 | 0.56 | 0.56 | 73 | 1016.4 |
| 20260507195250 | 18 | 95 | 3.2 | 3.2 | 0.00 | 0.56 | 0.56 | 74 | 1016.5 |
| 20260507194748 | 18 | 90 | 1.6 | 3.2 | 0.00 | 0.56 | 0.56 | 73 | 1016.6 |
| 20260507194243 | 18 | 124 | 0.0 | 1.6 | 0.00 | 0.56 | 0.56 | 71 | 1016.5 |
| 20260507193740 | 18 | 39 | 1.6 | 3.2 | 0.00 | 0.56 | 0.56 | 73 | 1016.7 |
| 20260507193237 | 18 | 50 | 3.2 | 4.8 | 0.00 | 0.56 | 0.56 | 74 | 1016.7 |
| 20260507192733 | 18 | 93 | 3.2 | 3.2 | 0.00 | 0.56 | 0.56 | 74 | 1016.9 |
| 20260507192230 | 18 | 86 | 3.2 | 3.2 | 0.00 | 0.56 | 0.56 | 72 | 1016.8 |
| 20260507191726 | 17 | 53 | 1.6 | 3.2 | 0.00 | 0.56 | 0.56 | 74 | 1016.7 |
| 20260507191223 | 18 | 111 | 1.6 | 3.2 | 0.00 | 0.56 | 0.56 | 73 | 1016.9 |
| 20260507190720 | 18 | 129 | 0.0 | 1.6 | 0.00 | 0.56 | 0.56 | 72 | 1016.8 |
| 20260507190219 | 18 | 166 | 1.6 | 1.6 | 0.00 | 0.56 | 0.56 | 73 | 1017.0 |
| 20260507185717 | 17 | 87 | 0.0 | 3.2 | 0.00 | 0.56 | 0.56 | 74 | 1017.1 |
| 20260507185214 | 17 | 156 | 1.6 | 3.2 | 0.00 | 0.56 | 0.56 | 74 | 1017.1 |
| 20260507184711 | 17 | 116 | 1.6 | 3.2 | 0.00 | 0.56 | 0.56 | 75 | 1017.3 |
| 20260507184209 | 17 | 92 | 3.2 | 4.8 | 0.00 | 0.56 | 0.56 | 73 | 1017.3 |
| 20260507183705 | 18 | 115 | 0.0 | 4.8 | 0.00 | 0.56 | 0.56 | 72 | 1017.0 |
| 20260507183202 | 18 | 118 | 3.2 | 3.2 | 0.00 | 0.56 | 0.56 | 72 | 1016.9 |
| 20260507182659 | 17 | 111 | 0.0 | 3.2 | 0.00 | 0.56 | 0.56 | 73 | 1017.2 |
| 20260507182154 | 17 | 108 | 3.2 | 4.8 | 0.00 | 0.56 | 0.56 | 77 | 1017.0 |
| 20260507181651 | 17 | 107 | 1.6 | 4.8 | 0.00 | 0.56 | 0.56 | 74 | 1017.3 |
| 20260507181148 | 17 | 97 | 3.2 | 3.2 | 0.00 | 0.56 | 0.56 | 75 | 1017.2 |
| 20260507180644 | 17 | 104 | 3.2 | 3.2 | 0.00 | 0.56 | 0.56 | 76 | 1017.2 |
| 20260507180142 | 16 | 95 | 1.6 | 4.8 | 0.00 | 0.56 | 0.56 | 76 | 1017.1 |